OKBK Airport Information

Runway Information
Runway 15L Length 11483 ft width 148 ft
Elevation 161 ft Threshold 0 ft Heading 155
Runway 33R Length 11483 ft Width 148 ft
Elevation 206 ft Threshold 0 ft Heading 335
Runway 15R Length 11155 ft width 148 ft
Elevation 134 ft Threshold 0 ft Heading 155
Runway 33L Length 11155 ft Width 148 ft
Elevation 170 ft Threshold 0 ft Heading 335
Airport Frequencies
Type APP Name APP Frequency 121.3 MHZ
Type ATIS Name ATIS Frequency 126.225 MHZ
Type GND Name GND Frequency 121.7 MHZ
Type TWR Name TWR Frequency 118.3 MHZ
Airport Navaids
Type VOR-DME Name Kuwait Frequency 115500 KHZ
Airport Weather Information & NOTAM
ADDS - METARS form results

(0811 UTC 22 May 2018)
 
METAR text: OKBK 220800Z 07003KT 7000 NSC 38/14 Q1010 NOSIG
Conditions at: OKBK (KUWAIT INTL (MIL, KW) observed 0800 UTC 22 May 2018
Temperature: 38.0°C (100°F)
Dewpoint: 14.0°C (57°F) [RH = 24%]
Pressure (altimeter): 29.82 inches Hg (1010.0 mb)
Winds: from the ENE (70 degrees) at 3 MPH (3 knots; 1.6 m/s)
Visibility: 4 miles (7 km)
Ceiling: at least 12,000 feet AGL
Clouds: sky clear below 12,000 feet AGL
Weather: no significant weather observed at this time